TIMESTAMP,CO2_1_1_1,H2O_1_1_1,TAU_1_1_1,TAU_SSITC_TEST_1_1_1,H_1_1_1,H_SSITC_TEST_1_1_1,LE_1_1_1,LE_SSITC_TEST_1_1_1,FC_1_1_1,FC_SSITC_TEST_1_1_1,WD_0_0_1,WS_0_0_1,WS_MAX_0_0_1,U_SIGMA_0_0_1,V_SIGMA_0_0_1,W_SIGMA_0_0_1,USTAR_0_0_1,MO_LENGTH_0_0_1,ZL_0_0_1,FETCH_MAX_0_0_1,FETCH_70_0_0_1,FETCH_80_0_0_1,FETCH_90_0_0_1,PA_0_0_1,RH_0_0_1,TA_0_0_1,VPD_0_0_1,T_SONIC_0_0_1,T_SONIC_SIGMA_0_0_1
[yyyymmddHHMMSS],[mmolCO2 mol-1],[mmolH2O mol-1],[kg m-1 s-2],[#],[W m-2],[#],[W m-2],[#],[umolCO2 m-2 s-1],[#],[Decimal degrees],[m s-1],[m s-1],[m s-1],[m s-1],[m s-1],[m s-1],[m],[#],[m],[m],[m],[m],[kPa],[%],[deg C],[hPa],[deg C],[deg C]
20221206003000,425.14039387103310,2.8626546581388230,0.26367738576367772,0,7.5614043543256457,2,-21.716496825887649,1,-0.22556418667854014,1,301.43720879277703,3.0818896156689242,7.0027302988387836,1.0933676435318067,0.94014934882153534,0.68316494961911545,0.46504524029163485,-1103.8770398154927,-1.7212061954994327E-002,92.051443169925008,168.29939641664217,201.41139324510144,252.14316399749052,93.463808249782971,70.651379310344822,-6.3731034482758560,1.1117213896730198,-5.9607942665948030,0.16397626126283688
20221206010000,425.17921870160751,3.0126721409737316,0.19943679027093406,0,-7.0982732125043153,0,-0.14387798399483795,1,0.37996904233611722,0,304.57968952254879,2.5713311193358277,6.2867780869532757,0.97926774255676108,0.82881921219411259,0.59816253966661137,0.40403660108991979,771.42847831531185,2.4629632602484745E-002,91.482094174985036,167.25844486934338,200.16564010571963,250.58362889342970,93.506084308593756,76.916666666666671,-6.8086666666666815,0.84564150304932528,-6.3640488857693072,6.9757786516988149E-002
20221206013000,425.26909719331843,2.9677366780751453,0.15782550356449657,0,-5.7518949382921933,1,2.7363704967563107,1,0.37313524824732214,0,290.16278983149414,2.4159670805864848,6.2325939651438871,0.91114485460246852,0.74351698357082341,0.52114249904362520,0.35921949641587037,669.21195741038355,2.8391602674768934E-002,92.977449046267168,169.99243049302228,203.43752262759179,254.67963755510951,93.540048841579861,76.980666666666664,-7.0099999999999909,0.83032958007441604,-6.5629254345363961,9.1084503989041637E-002
20221206020000,425.42184962929866,2.8538289250721220,0.15348648963612388,0,-20.723592877127540,0,1.4957519016164427,1,0.38694352312405766,0,283.51757118076989,2.0847256550208648,5.5643500563272728,0.78774439825582832,0.61319473435623051,0.46166823728202711,0.35390360010677008,177.67879870905983,0.10693453657975002,101.22758764778960,185.07631510335628,221.48908002827713,277.27804534504133,93.588359669536942,76.193333333333328,-7.3773333333333539,0.83473354695028323,-6.9129821407679515,0.17651395581401050
20221206023000,425.55741412779020,2.7945466124337695,4.4393658730769718E-002,0,-4.0256134049381247,2,1.7782927740850047,1,0.10952355507787062,0,274.71998461036628,1.8298829460674724,3.6595308880491566,0.50531849445441257,0.42343117303039213,0.28711196704651770,0.19015745445986090,141.91608214450795,0.13388193721873604,125.68323488906847,1024.0000000000000,1814.0000000000000,4595.0000000000000,93.613591707248275,77.025333333333336,-7.7853333333333126,0.78051702067612616,-7.3152337315876821,0.16099342457024932
20221206030000,425.62892886804593,2.7574109667648190,1.5567654570860526E-002,0,-5.4163707784033823,0,-0.11549443142989300,1,4.8169245494047691E-002,1,269.44704622664449,1.9171980993681175,3.4521882472375784,0.37472421596937983,0.24480042045326267,0.16199373973221115,0.11253690768627203,21.865559851799865,0.86894642208011030,376.83507279078287,3868.0000000000000,7313.0000000000000,-9999.,93.632928888020828,77.631666666666661,-8.0559999999999832,0.74411712982582345,-7.5636939705742634,0.13772698843770220
20221206033000,425.70257918969031,2.7105844026393329,5.5489540524279415E-002,0,-19.774800012899046,0,-0.15856831746874042,1,0.32094136751262881,0,259.97878563522806,2.4216259306642574,4.6246967255916953,0.58259907477919581,0.37176439586043597,0.25973119564934793,0.21233434448065872,40.230826366801985,0.47227466388009820,106.57413210061910,194.85150355602289,233.18748398815208,291.92305891969113,93.642171978310088,78.105333333333334,-8.3530000000000086,0.71171896760787212,-7.8823966477231693,0.23071098114953068
20221206040000,426.01017594001388,2.6486806748887122,3.7565642499881188E-002,0,-16.043008288069128,0,-0.41544937975259838,1,0.18907395370821140,0,267.08491265959071,1.8923949968958427,3.6451286382239894,0.45966857899018099,0.35089323181101906,0.26426432678373052,0.17450331302582545,27.528811099451673,0.69018599936480540,168.63726788907832,1576.0000000000000,2901.0000000000000,7868.0000000000000,93.659763929253472,79.754999999999995,-8.9139999999999873,0.62988171704473328,-8.4730047590467166,0.17610111011917068
20221206043000,426.07114253052708,2.6216379358612265,6.2946386276659785E-002,0,-17.094586088534406,0,-0.70880660844429400,0,0.33838470591715097,0,263.92433489157588,2.2431282004383610,4.2209493703406329,0.50184695194380313,0.37137562033076321,0.26762697904395588,0.22569792333176894,55.906356639229806,0.33985401915222629,109.25794728808735,199.75837367766698,239.05975429164420,299.27444451071960,93.683345990885414,81.323333333333338,-9.2900000000000205,0.56420350776663020,-8.8371548936631825,0.17328520421043211
20221206050000,426.19062792917236,2.6179766951391255,4.6693885425047807E-002,0,-16.781364014947016,0,-0.37747294762985956,1,0.21594898664344003,1,270.16269271490626,1.8495612417948415,3.3786016905984906,0.45284729204224672,0.34077629319907227,0.23154553728950286,0.19423239930940014,36.308991130505788,0.52328636539936069,131.61162027987436,1211.0000000000000,2220.0000000000000,5975.0000000000000,93.725848770150932,83.223333333333329,-9.5956666666666592,0.49476868758541143,-9.1397957778661407,0.16014251651047720
20221206053000,426.59823322828453,2.6382628778612287,1.1313739483524810E-002,1,-10.688517109811695,0,0.30896667745510159,2,0.10275205752949608,1,291.44299812284873,2.0739615071723771,3.8509216350001725,0.55486164682523653,0.35634932905567585,0.20034596897509421,9.5537835116077274E-002,6.7854053675035599,2.8001274752123395,661.49212291257209,5872.0000000000000,-9999.,-9999.,93.753158135850697,85.986666666666665,-9.9083333333333599,0.40320953272188120,-9.4452518675061583,0.16303815622621778
20221206060000,427.10961000573195,2.7042318067928335,4.3736150713280623E-002,0,-14.033466042406566,0,-0.49159116158654054,0,0.24601949382685845,0,307.34360810785864,2.6479008100128190,4.9794750316550802,0.49272369158580054,0.52058074117944664,0.23751413367237453,0.18772509669693485,39.220366630960768,0.48444218226663127,249.98732628438549,2515.0000000000000,4726.0000000000000,-9999.,93.795110654947919,89.696666666666673,-10.124666666666656,0.29143522481129508,-9.6570592668321069,0.18503332783912468
20221206063000,427.40365931438885,2.7113773234433727,1.4641595519453375E-002,0,-5.9831648264966306,0,-5.7343170637577379E-002,1,0.12834904313891812,0,322.42871458634318,2.1140513753737991,3.4698922312095419,0.32534919200726048,0.34950191260721214,0.14932880632746340,0.10858648876045668,17.806737762041845,1.0670118386592855,489.55292291681434,5084.0000000000000,9642.0000000000000,-9999.,93.818752305121521,90.530000000000001,-10.204999999999984,0.26616659596590980,-9.7308504994709892,0.14546840555305049
20221206070000,427.27835215572463,2.7128002775309876,1.4942373330125418E-002,0,-2.1251232910199889,1,-0.18071736123872639,1,0.23464853345991471,1,337.19705239888549,1.9102186690319847,3.6873232633097315,0.42365376937049570,0.30058220134995345,0.13424864698178951,0.10966109565215681,51.638817658171469,0.36794026009217484,325.48842077151028,3354.0000000000000,6348.0000000000000,-9999.,93.823331618111908,91.703333333333333,-10.360333333333358,0.23033698119244692,-9.9503896300790871,0.15557144286906158
20221206073000,426.85080594853935,2.7558581986144164,6.4477716156735490E-002,0,-10.843908839251064,0,0.19847341980797567,2,0.49585117150230396,0,331.92430994804306,2.1921338201480127,4.2587367643525411,0.62144493661981481,0.51745610750385107,0.26226997755103482,0.22790027344324132,90.846722378784932,0.20914348368870811,111.90562407823926,204.59917128326614,244.85295266858660,306.52684143272398,93.839676419921872,91.129999999999995,-10.079999999999984,0.25178050355764242,-9.7352367155286856,0.13969313184438764
20221206080000,427.45287593091700,2.7423374131508877,2.8998411751238410E-002,0,-2.0318205965165781,0,-0.29230308322362181,1,0.27986013746946253,0,348.86322961500053,1.5134002940809832,3.3118142496751566,0.49730640348719424,0.36900656465611242,0.20886419469834536,0.15281919434797761,146.20112381493823,0.12995796136321258,131.16741488042439,1067.0000000000000,1887.0000000000000,4777.0000000000000,93.852620932291671,90.853333333333339,-10.101999999999975,0.25918255076786467,-9.8063546218871807,5.8910782778750108E-002
20221206083000,428.08550656911427,2.7250349133513416,6.0760584767997554E-002,0,-3.0618893604751203,0,-3.6772703886560273E-002,2,0.28232729742341112,1,349.92170097796179,1.5788712490774632,4.1492621763245463,0.58450111945237138,0.42908703249776287,0.29242859662767345,0.22114606510112492,294.10833088207863,6.4602046269875854E-002,100.13419269246748,183.07724040459220,219.09669818465878,274.28306716718816,93.900468562065981,90.416666666666671,-10.114666666666665,0.27128414451050165,-9.8183263727823942,4.3119602150577224E-002
20221206090000,427.70646505599859,2.6665315724315937,8.7994648824196775E-002,0,-4.5540873769855965,1,-1.4802114492350491,2,0.38542235091684979,1,359.11384224468389,1.7063404928178829,4.4617466578411484,0.65608170499477270,0.50766627499544348,0.34500172313862482,0.26607541360164899,344.47282973741528,5.5156744915073039E-002,101.71890706510648,185.97460369650264,222.56410204816538,278.62384534718785,93.926829560329864,88.719999999999999,-10.146000000000015,0.31852273727296676,-9.8455473726060063,5.4936972229011415E-002
20221206093000,427.07146204786261,2.6529154771712844,0.10421398079733882,0,-4.3546849965948438,1,-1.1202013929253585,1,0.11092985559661524,2,6.7602386032308743,1.6615005539529815,4.6742031636589854,0.65259005496766198,0.51107239667645155,0.36495620987041416,0.28949699204330154,463.98421878456475,4.0949668611082658E-002,104.03453686253154,190.20831349844042,227.63077137651365,284.96671411342555,93.922905347439240,89.143333333333331,-10.271333333333303,0.30354217746244699,-9.9614726994832381,4.6882097725885870E-002
20221206100000,426.93336513357372,2.5960963927288576,0.11262468428355085,0,-3.2149276810558227,1,0.31355816952089050,1,0.19663486092561730,0,2.3085441947650907,1.5728394426490968,4.7150213082365022,0.62698420162520940,0.45155523121194657,0.34044954761017954,0.30084595632849215,705.43085400197344,2.6933894218279894E-002,113.41957967322678,207.36716496227501,248.16553414691023,310.67380035836715,93.943997390842014,88.096666666666664,-10.392666666666685,0.32962143676072941,-10.083092653062579,4.5960182517487541E-002
20221206103000,427.14661025607865,2.6006159037099987,6.1329132683131303E-002,0,-0.48633937547047557,1,0.14668332645745510,0,5.1553440563867944E-002,1,356.36171320004996,1.4651843488549046,3.7044858585726814,0.55448488012294528,0.49103201724455980,0.26612491294531698,0.22194800066808446,1872.8166447609381,1.0145146911819185E-002,108.28977807077948,197.98825156669366,236.94137022030455,296.62247903000093,93.970582857204860,88.686666666666667,-10.451333333333366,0.31182926079265344,-10.141362650553390,3.5326361131296793E-002
20221206110000,427.27926879873542,2.6133411601588548,7.2895008899711761E-002,0,-0.43368773314707115,0,0.55227989859269788,1,2.5128511492127695E-002,2,0.13103652731098236,1.4860638413463134,3.6508621949067201,0.55626067318164207,0.41768200668369027,0.28208651215291658,0.24197787915568042,2721.4150831296070,6.9816619000105428E-003,110.75658990824971,202.49837035487266,242.33883050934341,303.37945882593988,93.959415037543394,89.263333333333335,-10.473000000000013,0.29542637247736198,-10.161769872877301,3.4496280595039758E-002
20221206113000,427.43825884371392,2.6108926372285173,8.2796526686809160E-002,0,-6.0570664707310318,0,-0.62542102094509133,1,0.23749865446917581,0,14.259736632983731,1.3892997310106761,3.9872014506819129,0.66833073856361602,0.46011612973770533,0.28745508596619335,0.25784227397956294,235.75911639309925,8.0590732993416223E-002,114.78422341596207,209.86216895479402,251.15141669304424,314.41177098841456,93.966672190321191,89.716666666666669,-10.547666666666657,0.28128082274119720,-10.225104532877594,6.7010617856494703E-002
20221206120000,427.19694013223909,2.5583579383136898,8.7363723555150818E-002,1,-7.6961750286556168,0,0.11530877577360289,2,0.31633544113317208,0,34.774343872122330,1.5741751076804853,3.2153339093688342,0.51447260141160855,0.52566568450934792,0.28455870587244592,0.26473595850281462,200.85768975726972,9.4594337030167522E-002,118.18646577967385,216.08255308520708,258.59562778887397,323.73103991816953,93.984954447482636,89.239999999999995,-10.733999999999980,0.28999387855838565,-10.385519705030674,9.7307078472933531E-002
20221206123000,427.37690813089364,2.5134857266079860,1.9664768080558812E-002,1,-5.5454312364158538,0,2.4744477670269219E-002,1,7.3943128102701622E-002,0,18.840804638360254,1.3031902511534075,3.0902272468634844,0.54867767056064698,0.25247452716071456,0.17852785871329133,0.12551830964217270,29.706227203692205,0.63959653542400963,155.25913133037187,1444.0000000000000,2653.0000000000000,7179.0000000000000,93.967157722439239,90.416666666666671,-11.122999999999990,0.25040159764040026,-10.771528544955800,0.14999361234511019
20221206130000,427.38992816326675,2.5082723844972432,2.1982410846456994E-003,2,-3.2353104099747814,1,-7.7323845138321426E-002,1,3.9103733839251633E-003,2,14.623036899347397,1.4360855533812966,2.9160032185461020,0.39868408796171201,0.16582321538189621,8.3437410664958259E-002,4.1975297465447536E-002,1.9026699767675654,9.9859672102878214,1405.0533036749096,-9999.,-9999.,-9999.,93.857356937500001,91.523333333333326,-11.315999999999974,0.21809854715200686,-10.988557167900922,0.11204031938912624
20221206133000,427.35323741243997,2.5075914620759203,1.5514189448377486E-002,0,-4.4217503884225939,0,0.86938606072876334,1,0.17315508752842082,1,59.094300001987435,2.2371951273988833,3.4119612132787105,0.39893332145348104,0.56124194866600996,0.15699674328635302,0.11160457537067760,26.133960762243550,0.72702336139762713,468.69727967287361,5070.0000000000000,9730.0000000000000,-9999.,93.692695724175366,91.513333333333335,-11.339999999999975,0.21793740045841162,-11.097093588934968,0.14067089234817423
20221206140000,427.39168559189778,2.5041914308725977,2.0928510643315669E-002,0,-5.7811958692889958,0,0.26731770073450978,2,9.5857757285456660E-002,2,67.261903471867527,1.9205879522458418,3.1372169389560969,0.34927994159621101,0.44309193276279657,0.18695175706838096,0.12968575744157607,31.345791931901282,0.60614196767711248,280.69248854520634,2850.0000000000000,5371.0000000000000,-9999.,93.622230944444439,90.946666666666658,-11.288666666666643,0.23344507440703610,-11.176568027072449,8.4353382739889973E-002
20221206143000,427.08461760118018,2.4861388801825659,4.1435719206606811E-002,0,-3.0976007490598310,1,-8.9621085309107104E-002,2,0.28125168954004237,0,46.462365885769941,2.1538585007429969,3.6752638511693254,0.39038149957186019,0.39599701328065423,0.22640967724261368,0.18237994580051023,162.89845999434144,0.11663707564000297,169.10210113276790,1371.0000000000000,2423.0000000000000,6124.0000000000000,93.770864797743073,89.460000000000008,-11.153000000000020,0.27473975274107687,-11.018203055487675,0.10287911170888737
20221206150000,426.97433008963657,2.5565148104233617,0.14661939402890956,0,18.095891965340545,0,0.84535397509462840,0,0.67300700908391242,0,68.363118531535704,2.2075567365613775,5.9395112677301984,0.73993044444970801,0.68074777736156533,0.45171202863464210,0.34316425695393765,-185.98351496644975,-0.10215959195860709,100.50026633273880,183.74653977220751,219.89767858625061,275.28579958218899,93.931417000434038,87.973333333333329,-10.570333333333338,0.32837485389594517,-10.426970887925791,0.30224437596369835
20221206153000,426.49934798264252,2.5513289123148271,0.43506681909339923,0,26.742112694400156,0,1.1056725746876910,2,0.24113769579603905,2,90.124741865544323,2.9251057491778130,6.3851343368111886,1.0751411983591312,0.95816614297206304,0.64478309740629880,0.59174696618660760,-645.73448053456138,-2.9423858525056832E-002,116.90492738918104,213.73949218167999,255.79158231345687,320.22070772308791,94.019596695205720,82.523333333333341,-9.7760000000000105,0.50813973276326241,-9.5341265235322226,0.22929506501103220
20221206160000,426.28473102462294,2.6252006045290464,0.42915257606457102,0,42.097345962176213,0,9.4963414409718965,1,0.45257968801442999,0,89.947772306666735,1.9164352806465037,7.0117901725675607,1.2211039527136378,0.68780799396406955,0.52621475582523125,0.58829037473331969,-403.14858586633721,-4.7129025540720605E-002,136.89824363344079,250.29365081735176,299.53757413797109,374.98549839914682,94.048682623914942,81.063333333333333,-9.1823333333333039,0.57691358804496817,-8.9303788011338838,0.17207070206804215
20221206163000,426.04674518978300,2.6699730369759487,0.37817966400122732,0,41.719109568713343,0,9.4600461947209364,0,0.83786084809967198,0,93.664214032582635,2.3280762526231396,6.4705927432877175,1.0836076663216339,0.77159384411513476,0.61591732339305894,0.55301227407829212,-337.84096043668984,-5.6239480184524668E-002,114.87480331584635,210.02777790075982,251.34960830425032,314.65988336737240,94.016235524739571,78.426000000000002,-8.5480000000000018,0.69071171493754435,-8.2744768346150295,0.30313042996392753
20221206170000,425.50814372708891,2.7005135322786180,0.47321512497529866,0,78.041931685828899,0,10.571946806124007,0,0.24382474241908025,1,101.15966311956136,2.6978773790508077,7.3003856568023657,1.2999485531513777,0.86757948485109548,0.67880738903825899,0.61982568700611418,-254.19546518632512,-7.4745629258464591E-002,116.43225460950676,212.87529558918433,254.75735971112903,318.92598375029200,93.967283031684033,73.912333333333336,-7.6460000000000150,0.89589648148882506,-7.4129766803316670,0.30059434376131594
20221206173000,425.20094654211442,2.7911418620546735,0.36762276034673286,0,102.37376282844224,0,6.6099544702761337,0,2.0130613913082296E-002,2,94.848504634889068,2.4696904479032487,5.7796775108445404,1.0313437846774614,0.79822498344416604,0.61125329754248880,0.54759926756445898,-133.57478385398548,-0.14224241620910619,114.66957810419358,209.65256076063437,250.90056921931495,314.09773971794954,93.914800902343742,70.176666666666662,-6.5523333333333085,1.1142839594409015,-6.4248922220864984,0.46053093126795824
20221206180000,424.52756451284972,2.7524574799319996,0.54272079023971687,0,97.580356399581333,0,21.135970389493572,1,-1.9172219961271068E-003,2,124.29491953062958,2.1880230737967428,6.0877873594905303,1.2590784218527451,1.1876669099394837,0.72222241196148129,0.66752794898420753,-253.71228677356362,-7.4887977407879197E-002,117.56923545480228,214.95405919582640,257.24510882464631,322.04035043336665,93.844174117838548,61.441666666666670,-5.0016666666666652,1.6214355107929697,-4.9082097456189899,0.41191416745565029
20221206183000,424.35108687124722,2.7218259970647352,0.52999180495996090,0,107.55728440208291,0,10.563928842570798,0,0.73592089019872242,0,136.78372878898355,2.8011523239418650,8.0342999179469405,1.3959976553497593,1.3409367882410286,0.81039348437453562,0.66009970912352212,-222.56179308583629,-8.5369549447654722E-002,106.26390721418736,194.28431352247281,232.50870238034852,291.07330489387681,93.834124388135891,59.221000000000004,-4.6643333333333317,1.7591321987892128,-4.5459652522924898,0.24626896166084555
20221206190000,424.18066399685904,2.8471697237153784,0.54197551939920097,0,110.56788162766092,1,24.848072533298961,1,-0.21696698204825335,2,153.59232653260742,2.2581126107723679,7.4407672649443688,1.3237861373712028,1.0050692669949435,0.71668305756279027,0.66818054080084455,-224.54426429793000,-8.4615833138317914E-002,118.38815392360907,216.45130333745496,259.03692766068610,324.28349499113051,93.827072599429457,59.661666666666669,-4.1663333333333412,1.8066772327462099,-3.9140332653198584,0.29470161868536487
20221206193000,424.18858267029628,3.0384027656886472,0.78263013562841943,0,92.819709580761895,1,14.473412884004585,0,-0.17784478034048021,2,151.53191459402439,2.8637006025360270,8.3121196997131275,1.4948343961039627,1.4204132292884812,0.87600034432746732,0.80293962748820891,-464.15406448745551,-4.0934684092405499E-002,116.78788460062542,213.52550063531751,255.53548908666454,319.90010939227170,93.824410820714078,63.793333333333329,-4.1926666666666392,1.6184188052811823,-3.8839540744960459,0.21539713467804275
20221206200000,424.37811649973600,3.0011205114463326,0.40828487859229368,0,45.888042953926991,0,8.5261790006139826,0,0.11939452033703025,1,157.89561828418843,2.7757489494623586,8.4070396211682414,1.3849008953157234,1.0254929059567612,0.73733606947282326,0.57964331669509384,-353.21980907116404,-5.3790867646870917E-002,103.28831258475257,188.84397752263382,225.99800966974351,282.92269020710182,93.828114130642348,64.281666666666666,-4.4573333333333380,1.5650815049409215,-4.1432388212415390,0.13695990688937015
20221206203000,424.63713869493915,3.0113129589019403,0.43366373699731436,0,48.718983984934603,0,14.299428907754342,0,0.52330717177368025,1,142.42476954233291,2.5462668894021925,6.6468697295775199,1.1567935410560763,0.87745985754804123,0.65293721592188336,0.59763922110101664,-364.53999200854764,-5.2120481748280975E-002,116.65652467548382,213.28533279705934,255.24806952399126,319.54029420625085,93.786617152343766,63.953666666666663,-4.3503333333333103,1.5922413166748037,-4.0237748277452283,0.14841341042451625
20221206210000,424.79206971049103,3.0433604015870510,0.67182922537473699,0,36.963778200872518,0,10.245158198559862,1,0.71156232115523688,0,137.45942843412942,2.5746979349453505,7.9967409978455191,1.4250675872564760,0.95236337242332458,0.78043177791140506,0.74409465237462036,-927.23906615677174,-2.0490939924211089E-002,120.52842754298827,220.36440611894039,263.71991226972852,330.14603601848239,93.772882904947906,64.014666666666670,-4.2243333333333339,1.6046974935583911,-3.8799163665771061,0.10492062941789260
20221206213000,424.92751008713964,3.1434768719018873,0.21728314838461768,0,3.1460692698008774,1,2.4523317027157887,1,0.24693435861021187,0,140.84944801950468,1.7285966332881522,6.3400792044735059,1.0008102751656234,0.80733679011197867,0.52758319384529972,0.42334605969610223,-2006.2119404038344,-9.4705846462938767E-003,104.99740247734577,191.96873893255810,229.73755100222297,287.60415220524868,93.762961882812490,65.180666666666667,-4.0353333333333126,1.5749244310492532,-3.6638307071261806,7.2100384560824432E-002
20221206220000,425.17661302920328,3.2532055083332638,7.9720910206545190E-002,0,-5.7964816436539852,0,-1.3749601373086580,1,0.17645783816027283,1,142.11659889572394,1.5216919665070721,4.2446993855819226,0.59628253572046430,0.59530480291978949,0.37424849927219200,0.25644930286952222,242.11479714208966,7.8475170556591339E-002,92.539695058908364,169.19207658965689,202.47970341850260,253.48056156429192,93.797592078125007,66.830333333333328,-3.9063333333333503,1.5149110997709676,-3.5150649337768414,4.0811186411769070E-002
20221206223000,425.37807093499714,3.4490676376491622,0.24534575388618837,0,-18.173837565568494,0,2.2034760763400687,2,0.72718175393901618,0,132.85555057847000,1.9736685969262355,5.3170242691839471,0.98618251427686798,0.72111587979367131,0.53532605386735943,0.45005442871017903,417.31912175951118,4.5528706951868704E-002,108.98637984455962,199.26186177890449,238.46555635973388,298.53057921005950,93.774752959852435,70.236999999999995,-3.7930000000000064,1.3709287052443277,-3.3757547302245712,8.9898969871863882E-002